Location: Pasadena, ca
(34.1243°N, 118.1037°W)
Time: 09:49:32
(UTC-08:00)

OTV 5 (USA 277) - Pass Details

Date: 12 November 2017
Orbit: 404 x 417 km, 43.0° (Epoch: 07 September)

Event Time Altitude Azimuth Distance (km) Brightness Sun altitude
Exits shadow 05:23:21 15° 324° (NW) 1,173 ? -12.6°
Maximum altitude 05:24:35 18° 352° (N) 1,053 ? -12.3°
Drops below altitude 10° 05:26:59 10° 39° (NE) 1,455 ? -11.8°
Sets 05:29:31 0° 59° (ENE) 2,316 ? -11.3°
